Weather History for Mt. Pocono, PA

Change the Weather History Date:

Tuesday, July 23, 2013

  Actual Average Record
Temperature  
Mean Temperature 72 °F 68 °F  
Max Temperature 79 °F 78 °F 91 °F (1955)
Min Temperature 65 °F 59 °F 40 °F (1939)
Degree Days  
Heating Degree Days 0 1  
Month to date heating degree days 0 23  
Since 1 June heating degree days 76 123  
Since 1 July heating degree days 0 23  
Cooling Degree Days 7 4  
Month to date cooling degree days 225 91  
Year to date cooling degree days 338 172  
Since 1 June cooling degree days 306 153  
Growing Degree Days 22 (Base 50)    
Moisture  
Dew Point 66 °F    
Average Humidity 80    
Maximum Humidity 97    
Minimum Humidity 62    
Precipitation  
Precipitation 0.31 in 0.16 in 3.08 in (2002)
Month to date precipitation 5.56 3.21  
Year to date precipitation 28.76 25.09  
Sea Level Pressure  
Sea Level Pressure 29.73 in    
Wind  
Wind Speed 8 mph (West)    
Max Wind Speed 17 mph    
Max Gust Speed 24 mph    
Visibility 8 miles    
Events Fog , Rain    
T = Trace of Precipitation, MM = Missing Value Source: NWS Daily Summary

Daily Weather History Graph

Daily Weather History Graph

Search for Another Location

Airport:

Trip Planner

Search our weather history database for the weather conditions in past years. The results will help you decide how hot, cold, wet, or windy it might be!

Date:

Astronomy

Jul. 23, 2013 Rise Set
Actual Time 5:48 AM EDT 8:26 PM EDT
Civil Twilight 5:17 AM EDT 8:58 PM EDT
Nautical Twilight 4:37 AM EDT 9:38 PM EDT
Astronomical Twilight 3:51 AM EDT 10:22 PM EDT
Moon 8:51 PM EDT (7/23) 6:55 AM EDT (7/23)
Length of Visible Light 15h 41m
Length of Day
14h 37m
Full, 99% of the Moon is Illuminated
Jul 23
Full
Jul 29
Last Quarter
Aug 6
New
Aug 14
First Quarter
Aug 20
Full

Hourly Weather History & Observations

Time (EDT) Temp. Dew Point Humidity Pressure Visibility Wind Dir Wind Speed Gust Speed Precip Events Conditions
12:53 AM 68.0 °F 66.9 °F 96% 29.81 in 6.0 mi SE 6.9 mph - 0.08 in Rain Light Rain
1:06 AM 68.0 °F 66.2 °F 94% 29.84 in 5.0 mi SE 6.9 mph - 0.02 in Rain Light Rain
1:28 AM 68.0 °F 66.2 °F 94% 29.83 in 4.0 mi SE 6.9 mph - 0.08 in Rain Rain
1:46 AM 68.0 °F 66.2 °F 94% 29.82 in 4.0 mi SE 5.8 mph - 0.14 in Rain Rain
1:53 AM 68.0 °F 66.9 °F 96% 29.78 in 4.0 mi SE 8.1 mph - 0.17 in Rain Rain
2:22 AM 69.8 °F 66.2 °F 88% 29.79 in 2.5 mi SE 9.2 mph - 0.09 in Rain Rain
2:37 AM 69.8 °F 68.0 °F 94% 29.79 in 4.0 mi SE 5.8 mph - 0.13 in Rain Light Rain
2:53 AM 69.1 °F 68.0 °F 96% 29.74 in 1.2 mi SSE 4.6 mph - 0.15 in Rain Light Rain
3:02 AM 69.8 °F 68.0 °F 94% 29.78 in 0.8 mi SSE 3.5 mph - 0.00 in   Mist
3:17 AM 69.8 °F 68.0 °F 94% 29.78 in 0.2 mi SSE 4.6 mph - 0.00 in Fog Fog
3:53 AM 69.1 °F 68.0 °F 96% 29.73 in 0.2 mi South 4.6 mph - 0.00 in Fog Fog
4:11 AM 69.8 °F 68.0 °F 94% 29.76 in 0.8 mi SSE 3.5 mph - N/A   Overcast
4:16 AM 69.8 °F 68.0 °F 94% 29.76 in 2.0 mi SSE 4.6 mph - N/A   Overcast
4:24 AM 69.8 °F 66.2 °F 88% 29.76 in 7.0 mi SSE 3.5 mph - N/A   Overcast
4:53 AM 69.1 °F 66.9 °F 93% 29.73 in 8.0 mi Calm Calm - 0.00 in Rain Light Rain
5:13 AM 68.0 °F 66.2 °F 94% 29.76 in 10.0 mi Calm Calm - 0.00 in   Overcast
5:53 AM 68.0 °F 66.9 °F 96% 29.73 in 9.0 mi SW 4.6 mph - 0.00 in   Overcast
6:06 AM 68.0 °F 66.2 °F 94% 29.75 in 8.0 mi West 5.8 mph - N/A   Overcast
6:53 AM 68.0 °F 66.9 °F 96% 29.72 in 7.0 mi WNW 4.6 mph - N/A   Overcast
7:32 AM 69.8 °F 66.2 °F 88% 29.75 in 8.0 mi NW 4.6 mph - N/A   Overcast
7:50 AM 69.8 °F 66.2 °F 88% 29.75 in 10.0 mi WNW 6.9 mph - N/A   Overcast
7:53 AM 70.0 °F 66.9 °F 90% 29.71 in 10.0 mi WNW 8.1 mph - N/A   Overcast
8:26 AM 69.8 °F 66.2 °F 88% 29.74 in 9.0 mi West 9.2 mph - N/A   Overcast
8:53 AM 70.0 °F 66.9 °F 90% 29.70 in 10.0 mi West 9.2 mph - N/A   Mostly Cloudy
9:03 AM 71.6 °F 66.2 °F 83% 29.73 in 10.0 mi West 10.4 mph - N/A   Scattered Clouds
9:53 AM 72.0 °F 66.9 °F 84% 29.70 in 10.0 mi West 11.5 mph - N/A   Mostly Cloudy
10:01 AM 73.4 °F 66.2 °F 78% 29.73 in 10.0 mi WNW 9.2 mph - N/A   Scattered Clouds
10:15 AM 73.4 °F 66.2 °F 78% 29.73 in 10.0 mi Variable 6.9 mph - N/A   Mostly Cloudy
10:28 AM 73.4 °F 66.2 °F 78% 29.73 in 10.0 mi WNW 9.2 mph 17.3 mph N/A   Scattered Clouds
10:37 AM 73.4 °F 66.2 °F 78% 29.73 in 10.0 mi West 10.4 mph - N/A   Mostly Cloudy
10:41 AM 75.2 °F 66.2 °F 73% 29.73 in 10.0 mi WNW 13.8 mph - N/A   Scattered Clouds
10:53 AM 75.9 °F 66.0 °F 71% 29.69 in 10.0 mi West 13.8 mph 21.9 mph N/A   Mostly Cloudy
11:53 AM 75.0 °F 64.9 °F 71% 29.68 in 10.0 mi West 8.1 mph - N/A   Mostly Cloudy
12:53 PM 75.9 °F 66.0 °F 71% 29.68 in 10.0 mi WNW 12.7 mph 21.9 mph N/A   Mostly Cloudy
1:00 PM 75.2 °F 66.2 °F 73% 29.72 in 10.0 mi WNW 9.2 mph - N/A   Mostly Cloudy
1:53 PM 78.1 °F 64.9 °F 64% 29.66 in 10.0 mi West 12.7 mph - N/A   Scattered Clouds
2:53 PM 79.0 °F 64.9 °F 62% 29.65 in 10.0 mi West 11.5 mph 20.7 mph N/A   Scattered Clouds
3:14 PM 77.0 °F 66.2 °F 69% 29.70 in 10.0 mi WNW 11.5 mph - N/A   Mostly Cloudy
3:43 PM 77.0 °F 64.4 °F 65% 29.69 in 10.0 mi WNW 8.1 mph - N/A   Overcast
3:53 PM 75.9 °F 66.0 °F 71% 29.65 in 10.0 mi NW 9.2 mph 17.3 mph N/A   Overcast
4:53 PM 73.9 °F 64.9 °F 73% 29.65 in 10.0 mi WNW 9.2 mph - N/A   Overcast
5:53 PM 77.0 °F 64.9 °F 66% 29.64 in 10.0 mi NW 12.7 mph 18.4 mph N/A   Clear
6:53 PM 75.9 °F 64.0 °F 67% 29.65 in 10.0 mi NW 10.4 mph 21.9 mph N/A   Clear
7:53 PM 75.0 °F 64.0 °F 69% 29.65 in 10.0 mi NW 6.9 mph - N/A   Clear
8:53 PM 71.1 °F 64.9 °F 81% 29.68 in 10.0 mi WNW 4.6 mph - N/A   Clear
9:53 PM 68.0 °F 64.9 °F 90% 29.69 in 10.0 mi NW 3.5 mph - N/A   Clear
10:53 PM 66.9 °F 64.0 °F 90% 29.69 in 9.0 mi WNW 4.6 mph - N/A   Clear
11:53 PM 66.0 °F 64.0 °F 93% 29.70 in 9.0 mi Calm Calm - N/A   Clear